Year,Month,Day,Hour,Minute,Value (Times are PST for windspeed in km/hr)
2011,07,06,00,00,7.40
2011,07,06,00,01,7.70
2011,07,06,00,02,7.20
2011,07,06,00,03,5.00
2011,07,06,00,04,3.00
2011,07,06,00,05,3.50
2011,07,06,00,06,3.20
2011,07,06,00,07,2.20
2011,07,06,00,08,3.60
2011,07,06,00,09,3.20
2011,07,06,00,10,2.00
2011,07,06,00,11,3.00
2011,07,06,00,12,1.00
2011,07,06,00,13,0.10
2011,07,06,00,14,1.10
2011,07,06,00,15,0.10
2011,07,06,00,16,2.20
2011,07,06,00,17,1.80
2011,07,06,00,18,1.80
2011,07,06,00,19,6.20
2011,07,06,00,20,2.40
2011,07,06,00,21,0.20
2011,07,06,00,22,2.00
2011,07,06,00,23,3.20
2011,07,06,00,24,3.00
2011,07,06,00,25,2.20
2011,07,06,00,26,3.10
2011,07,06,00,27,3.80
2011,07,06,00,28,1.70
2011,07,06,00,29,3.40
2011,07,06,00,30,1.20
2011,07,06,00,31,0.10
2011,07,06,00,32,0.20
2011,07,06,00,33,0.10
2011,07,06,00,34,0.10
2011,07,06,00,35,0.00
2011,07,06,00,36,0.00
2011,07,06,00,37,0.10
2011,07,06,00,38,0.00
2011,07,06,00,39,0.00
2011,07,06,00,40,0.70
2011,07,06,00,41,4.10
2011,07,06,00,42,2.00
2011,07,06,00,43,2.40
2011,07,06,00,44,1.80
2011,07,06,00,45,1.00
2011,07,06,00,46,4.50
2011,07,06,00,47,4.00
2011,07,06,00,48,1.40
2011,07,06,00,49,0.90
2011,07,06,00,50,0.10
2011,07,06,00,51,2.90
2011,07,06,00,52,2.90
2011,07,06,00,53,2.90
2011,07,06,00,54,3.60
2011,07,06,00,55,4.60
2011,07,06,00,56,1.80
2011,07,06,00,57,1.00
2011,07,06,00,58,2.20
2011,07,06,00,59,0.10
2011,07,06,01,00,0.10
2011,07,06,01,01,0.00
2011,07,06,01,02,0.20
2011,07,06,01,03,3.80
2011,07,06,01,04,4.70
2011,07,06,01,05,5.60
2011,07,06,01,06,5.90
2011,07,06,01,07,4.50
2011,07,06,01,08,4.40
2011,07,06,01,09,4.10
2011,07,06,01,10,4.00
2011,07,06,01,11,3.80
2011,07,06,01,12,1.30
2011,07,06,01,13,0.10
2011,07,06,01,14,0.20
2011,07,06,01,15,4.10
2011,07,06,01,16,4.50
2011,07,06,01,17,2.10
2011,07,06,01,18,5.10
2011,07,06,01,19,3.10
2011,07,06,01,20,6.80
2011,07,06,01,21,6.40
2011,07,06,01,22,5.00
2011,07,06,01,23,9.60
2011,07,06,01,24,4.90
2011,07,06,01,25,4.70
2011,07,06,01,26,7.90
2011,07,06,01,27,5.70
2011,07,06,01,28,5.60
2011,07,06,01,29,5.20
2011,07,06,01,30,2.20
2011,07,06,01,31,5.40
2011,07,06,01,32,0.90
2011,07,06,01,33,5.10
2011,07,06,01,34,2.20
2011,07,06,01,35,1.20
2011,07,06,01,36,2.90
2011,07,06,01,37,2.60
2011,07,06,01,38,1.60
2011,07,06,01,39,1.30
2011,07,06,01,40,0.10
2011,07,06,01,41,0.40
2011,07,06,01,42,2.70
2011,07,06,01,43,5.20
2011,07,06,01,44,1.00
2011,07,06,01,45,2.40
2011,07,06,01,46,3.90
2011,07,06,01,47,2.10
2011,07,06,01,48,1.80
2011,07,06,01,49,1.30
2011,07,06,01,50,2.60
2011,07,06,01,51,3.60
2011,07,06,01,52,1.10
2011,07,06,01,53,0.90
2011,07,06,01,54,0.10
2011,07,06,01,55,3.10
2011,07,06,01,56,3.60
2011,07,06,01,57,2.20
2011,07,06,01,58,3.50
2011,07,06,01,59,4.40
2011,07,06,02,00,2.80
2011,07,06,02,01,1.50
2011,07,06,02,02,1.50
2011,07,06,02,03,4.20
2011,07,06,02,04,3.60
2011,07,06,02,05,4.10
2011,07,06,02,06,4.20
2011,07,06,02,07,4.00
2011,07,06,02,08,4.40
2011,07,06,02,09,4.50
2011,07,06,02,10,4.20
2011,07,06,02,11,4.50
2011,07,06,02,12,6.70
2011,07,06,02,13,5.10
2011,07,06,02,14,6.50
2011,07,06,02,15,3.70
2011,07,06,02,16,2.50
2011,07,06,02,17,1.50
2011,07,06,02,18,3.60
2011,07,06,02,19,3.60
2011,07,06,02,20,0.50
2011,07,06,02,21,5.00
2011,07,06,02,22,0.60
2011,07,06,02,23,3.30
2011,07,06,02,24,4.70
2011,07,06,02,25,2.50
2011,07,06,02,26,0.50
2011,07,06,02,27,0.10
2011,07,06,02,28,0.00
2011,07,06,02,29,0.00
2011,07,06,02,30,0.60
2011,07,06,02,31,2.20
2011,07,06,02,32,2.30
2011,07,06,02,33,2.90
2011,07,06,02,34,1.20
2011,07,06,02,35,0.70
2011,07,06,02,36,3.10
2011,07,06,02,37,2.90
2011,07,06,02,38,0.70
2011,07,06,02,39,1.00
2011,07,06,02,40,2.70
2011,07,06,02,41,4.50
2011,07,06,02,42,2.80
2011,07,06,02,43,2.90
2011,07,06,02,44,1.80
2011,07,06,02,45,3.10
2011,07,06,02,46,0.10
2011,07,06,02,47,0.10
2011,07,06,02,48,0.00
2011,07,06,02,49,0.00
2011,07,06,02,50,0.00
2011,07,06,02,51,0.00
2011,07,06,02,52,0.00
2011,07,06,02,53,0.00
2011,07,06,02,54,0.00
2011,07,06,02,55,0.20
2011,07,06,02,56,0.50
2011,07,06,02,57,1.50
2011,07,06,02,58,1.40
2011,07,06,02,59,2.60
2011,07,06,03,00,1.90
2011,07,06,03,01,2.10
2011,07,06,03,02,3.80
2011,07,06,03,03,5.00
2011,07,06,03,04,4.50
2011,07,06,03,05,4.50
2011,07,06,03,06,3.80
2011,07,06,03,07,3.50
2011,07,06,03,08,4.50
2011,07,06,03,09,4.30
2011,07,06,03,10,5.10
2011,07,06,03,11,4.30
2011,07,06,03,12,4.00
2011,07,06,03,13,1.30
2011,07,06,03,14,0.00
2011,07,06,03,15,0.10
2011,07,06,03,16,0.00
2011,07,06,03,17,0.00
2011,07,06,03,18,0.00
2011,07,06,03,19,0.70
2011,07,06,03,20,0.10
2011,07,06,03,21,0.20
2011,07,06,03,22,1.40
2011,07,06,03,23,2.50
2011,07,06,03,24,0.80
2011,07,06,03,25,2.90
2011,07,06,03,26,4.10
2011,07,06,03,27,3.10
2011,07,06,03,28,2.60
2011,07,06,03,29,0.10
2011,07,06,03,30,0.00
2011,07,06,03,31,0.00
2011,07,06,03,32,0.70
2011,07,06,03,33,0.10
2011,07,06,03,34,0.20
2011,07,06,03,35,1.20
2011,07,06,03,36,0.40
2011,07,06,03,37,0.00
2011,07,06,03,38,0.50
2011,07,06,03,39,0.20
2011,07,06,03,40,0.00
2011,07,06,03,41,0.10
2011,07,06,03,42,1.30
2011,07,06,03,43,0.00
2011,07,06,03,44,0.00
2011,07,06,03,45,0.00
2011,07,06,03,46,0.00
2011,07,06,03,47,0.00
2011,07,06,03,48,0.00
2011,07,06,03,49,0.00
2011,07,06,03,50,0.00
2011,07,06,03,51,0.00
2011,07,06,03,52,0.00
2011,07,06,03,53,0.00
2011,07,06,03,54,0.00
2011,07,06,03,55,0.00
2011,07,06,03,56,0.00
2011,07,06,03,57,0.00
2011,07,06,03,58,0.00
2011,07,06,03,59,0.00
2011,07,06,04,00,0.00
2011,07,06,04,01,0.00
2011,07,06,04,02,0.10
2011,07,06,04,03,0.00
2011,07,06,04,04,0.00
2011,07,06,04,05,0.00
2011,07,06,04,06,0.00
2011,07,06,04,07,0.00
2011,07,06,04,08,0.00
2011,07,06,04,09,0.00
2011,07,06,04,10,0.00
2011,07,06,04,11,0.00
2011,07,06,04,12,0.00
2011,07,06,04,13,0.00
2011,07,06,04,14,0.10
2011,07,06,04,15,0.00
2011,07,06,04,16,0.60
2011,07,06,04,17,0.70
2011,07,06,04,18,0.50
2011,07,06,04,19,0.20
2011,07,06,04,20,0.20
2011,07,06,04,21,0.10
2011,07,06,04,22,0.00
2011,07,06,04,23,0.20
2011,07,06,04,24,0.20
2011,07,06,04,25,0.00
2011,07,06,04,26,0.00
2011,07,06,04,27,0.00
2011,07,06,04,28,0.00
2011,07,06,04,29,0.10
2011,07,06,04,30,2.30
2011,07,06,04,31,1.20
2011,07,06,04,32,1.50
2011,07,06,04,33,0.50
2011,07,06,04,34,0.40
2011,07,06,04,35,2.30
2011,07,06,04,36,1.20
2011,07,06,04,37,1.50
2011,07,06,04,38,2.10
2011,07,06,04,39,1.80
2011,07,06,04,40,0.50
2011,07,06,04,41,0.00
2011,07,06,04,42,0.10
2011,07,06,04,43,0.00
2011,07,06,04,44,0.00
2011,07,06,04,45,0.00
2011,07,06,04,46,0.00
2011,07,06,04,47,0.00
2011,07,06,04,48,0.00
2011,07,06,04,49,0.00
2011,07,06,04,50,0.00
2011,07,06,04,51,0.00
2011,07,06,04,52,0.00
2011,07,06,04,53,0.00
2011,07,06,04,54,0.00
2011,07,06,04,55,0.00
2011,07,06,04,56,0.00
2011,07,06,04,57,0.00
2011,07,06,04,58,0.00
2011,07,06,04,59,0.00
2011,07,06,05,00,0.00
2011,07,06,05,01,0.00
2011,07,06,05,02,0.00
2011,07,06,05,03,0.10
2011,07,06,05,04,0.00
2011,07,06,05,05,0.00
2011,07,06,05,06,0.00
2011,07,06,05,07,0.00
2011,07,06,05,08,0.10
2011,07,06,05,09,0.00
2011,07,06,05,10,0.10
2011,07,06,05,11,0.10
2011,07,06,05,12,0.30
2011,07,06,05,13,1.80
2011,07,06,05,14,2.10
2011,07,06,05,15,0.70
2011,07,06,05,16,0.30
2011,07,06,05,17,0.10
2011,07,06,05,18,0.00
2011,07,06,05,19,0.00
2011,07,06,05,20,0.00
2011,07,06,05,21,0.00
2011,07,06,05,22,0.00
2011,07,06,05,23,0.00
2011,07,06,05,24,0.00
2011,07,06,05,25,0.00
2011,07,06,05,26,0.00
2011,07,06,05,27,0.00
2011,07,06,05,28,0.00
2011,07,06,05,29,0.00
2011,07,06,05,30,0.00
2011,07,06,05,31,0.00
2011,07,06,05,32,0.00
2011,07,06,05,33,0.00
2011,07,06,05,34,0.00
2011,07,06,05,35,0.00
2011,07,06,05,36,0.00
2011,07,06,05,37,0.00
2011,07,06,05,38,0.10
2011,07,06,05,39,0.00
2011,07,06,05,40,0.10
2011,07,06,05,41,0.00
2011,07,06,05,42,0.00
2011,07,06,05,43,0.00
2011,07,06,05,44,0.00
2011,07,06,05,45,0.00
2011,07,06,05,46,0.00
2011,07,06,05,47,0.00
2011,07,06,05,48,0.00
2011,07,06,05,49,0.00
2011,07,06,05,50,0.00
2011,07,06,05,51,0.10
2011,07,06,05,52,0.00
2011,07,06,05,53,0.00
2011,07,06,05,54,0.00
2011,07,06,05,55,0.00
2011,07,06,05,56,0.00
2011,07,06,05,57,0.10
2011,07,06,05,58,0.00
2011,07,06,05,59,0.00
2011,07,06,06,00,0.00
2011,07,06,06,01,0.00
2011,07,06,06,02,0.00
2011,07,06,06,03,0.00
2011,07,06,06,04,0.00
2011,07,06,06,05,0.00
2011,07,06,06,06,0.00
2011,07,06,06,07,0.10
2011,07,06,06,08,0.20
2011,07,06,06,09,0.10
2011,07,06,06,10,0.00
2011,07,06,06,11,0.40
2011,07,06,06,12,0.30
2011,07,06,06,13,0.10
2011,07,06,06,14,0.00
2011,07,06,06,15,0.00
2011,07,06,06,16,0.00
2011,07,06,06,17,0.00
2011,07,06,06,18,0.00
2011,07,06,06,19,0.00
2011,07,06,06,20,0.00
2011,07,06,06,21,0.00
2011,07,06,06,22,0.00
2011,07,06,06,23,0.00
2011,07,06,06,24,0.00
2011,07,06,06,25,0.00
2011,07,06,06,26,0.00
2011,07,06,06,27,0.00
2011,07,06,06,28,0.00
2011,07,06,06,29,0.00
2011,07,06,06,30,0.10
2011,07,06,06,31,0.00
2011,07,06,06,32,0.00
2011,07,06,06,33,0.00
2011,07,06,06,34,0.00
2011,07,06,06,35,0.30
2011,07,06,06,36,0.20
2011,07,06,06,37,0.00
2011,07,06,06,38,0.00
2011,07,06,06,39,0.00
2011,07,06,06,40,0.00
2011,07,06,06,41,0.10
2011,07,06,06,42,0.00
2011,07,06,06,43,0.00
2011,07,06,06,44,0.00
2011,07,06,06,45,0.00
2011,07,06,06,46,0.00
2011,07,06,06,47,0.00
2011,07,06,06,48,0.10
2011,07,06,06,49,0.00
2011,07,06,06,50,0.10
2011,07,06,06,51,0.10
2011,07,06,06,52,0.40
2011,07,06,06,53,0.50
2011,07,06,06,54,0.00
2011,07,06,06,55,0.10
2011,07,06,06,56,0.10
2011,07,06,06,57,0.00
2011,07,06,06,58,0.00
2011,07,06,06,59,0.00
2011,07,06,07,00,0.00
2011,07,06,07,01,0.00
2011,07,06,07,02,0.10
2011,07,06,07,03,0.00
2011,07,06,07,04,0.20
2011,07,06,07,05,0.10
2011,07,06,07,06,0.10
2011,07,06,07,07,0.00
2011,07,06,07,08,0.00
2011,07,06,07,09,0.00
2011,07,06,07,10,0.00
2011,07,06,07,11,0.10
2011,07,06,07,12,0.10
2011,07,06,07,13,0.10
2011,07,06,07,14,0.10
2011,07,06,07,15,0.00
2011,07,06,07,16,0.00
2011,07,06,07,17,0.10
2011,07,06,07,18,0.10
2011,07,06,07,19,0.50
2011,07,06,07,20,2.00
2011,07,06,07,21,1.30
2011,07,06,07,22,2.60
2011,07,06,07,23,0.90
2011,07,06,07,24,2.10
2011,07,06,07,25,2.60
2011,07,06,07,26,2.00
2011,07,06,07,27,2.10
2011,07,06,07,28,3.60
2011,07,06,07,29,0.90
2011,07,06,07,30,4.40
2011,07,06,07,31,2.70
2011,07,06,07,32,2.40
2011,07,06,07,33,3.10
2011,07,06,07,34,3.00
2011,07,06,07,35,3.10
2011,07,06,07,36,2.70
2011,07,06,07,37,0.80
2011,07,06,07,38,0.40
2011,07,06,07,39,1.50
2011,07,06,07,40,1.70
2011,07,06,07,41,2.10
2011,07,06,07,42,3.60
2011,07,06,07,43,2.00
2011,07,06,07,44,5.20
2011,07,06,07,45,3.70
2011,07,06,07,46,4.90
2011,07,06,07,47,4.50
2011,07,06,07,48,1.90
2011,07,06,07,49,2.50
2011,07,06,07,50,1.50
2011,07,06,07,51,0.90
2011,07,06,07,52,0.10
2011,07,06,07,53,2.50
2011,07,06,07,54,2.60
2011,07,06,07,55,3.60
2011,07,06,07,56,0.90
2011,07,06,07,57,1.80
2011,07,06,07,58,1.90
2011,07,06,07,59,2.00
2011,07,06,08,00,2.10
2011,07,06,08,01,0.10
2011,07,06,08,02,2.70
2011,07,06,08,03,6.10
2011,07,06,08,04,3.60
2011,07,06,08,05,2.60
2011,07,06,08,06,0.40
2011,07,06,08,07,4.80
2011,07,06,08,08,5.00
2011,07,06,08,09,3.70
2011,07,06,08,10,0.20
2011,07,06,08,11,0.10
2011,07,06,08,12,0.60
2011,07,06,08,13,0.30
2011,07,06,08,14,1.40
2011,07,06,08,15,1.10
2011,07,06,08,16,0.40
2011,07,06,08,17,0.00
2011,07,06,08,18,0.40
2011,07,06,08,19,3.50
2011,07,06,08,20,3.40
2011,07,06,08,21,5.30
2011,07,06,08,22,5.00
2011,07,06,08,23,0.60
2011,07,06,08,24,0.70
2011,07,06,08,25,2.50
2011,07,06,08,26,3.10
2011,07,06,08,27,2.70
2011,07,06,08,28,2.80
2011,07,06,08,29,4.30
2011,07,06,08,30,4.40
2011,07,06,08,31,5.10
2011,07,06,08,32,3.40
2011,07,06,08,33,2.20
2011,07,06,08,34,0.30
2011,07,06,08,35,2.60
2011,07,06,08,36,1.30
2011,07,06,08,37,3.10
2011,07,06,08,38,3.50
2011,07,06,08,39,5.40
2011,07,06,08,40,3.30
2011,07,06,08,41,1.70
2011,07,06,08,42,3.40
2011,07,06,08,43,4.40
2011,07,06,08,44,3.20
2011,07,06,08,45,2.90
2011,07,06,08,46,2.70
2011,07,06,08,47,3.30
2011,07,06,08,48,5.40
2011,07,06,08,49,5.50
2011,07,06,08,50,2.80
2011,07,06,08,51,2.70
2011,07,06,08,52,5.50
2011,07,06,08,53,6.80
2011,07,06,08,54,5.10
2011,07,06,08,55,3.70
2011,07,06,08,56,4.30
2011,07,06,08,57,4.50
2011,07,06,08,58,3.90
2011,07,06,08,59,0.90
2011,07,06,09,00,0.60
2011,07,06,09,01,1.70
2011,07,06,09,02,0.20
2011,07,06,09,03,1.90
2011,07,06,09,04,4.20
2011,07,06,09,05,4.40
2011,07,06,09,06,6.90
2011,07,06,09,07,5.30
2011,07,06,09,08,1.50
2011,07,06,09,09,4.40
2011,07,06,09,10,3.60
2011,07,06,09,11,3.60
2011,07,06,09,12,6.20
2011,07,06,09,13,4.50
2011,07,06,09,14,0.80
2011,07,06,09,15,3.80
2011,07,06,09,16,5.10
2011,07,06,09,17,4.80
2011,07,06,09,18,4.70
2011,07,06,09,19,4.30
2011,07,06,09,20,3.30
2011,07,06,09,21,2.10
2011,07,06,09,22,3.20
2011,07,06,09,23,6.00
2011,07,06,09,24,5.50
2011,07,06,09,25,8.10
2011,07,06,09,26,6.00
2011,07,06,09,27,4.20
2011,07,06,09,28,6.50
2011,07,06,09,29,4.10
2011,07,06,09,30,7.70
2011,07,06,09,31,6.30
2011,07,06,09,32,4.50
2011,07,06,09,33,6.90
2011,07,06,09,34,8.10
2011,07,06,09,35,5.60
2011,07,06,09,36,5.40
2011,07,06,09,37,7.00
2011,07,06,09,38,8.50
2011,07,06,09,39,5.70
2011,07,06,09,40,6.20
2011,07,06,09,41,6.10
2011,07,06,09,42,6.00
2011,07,06,09,43,6.90
2011,07,06,09,44,5.00
2011,07,06,09,45,5.80
2011,07,06,09,46,4.40
2011,07,06,09,47,5.70
2011,07,06,09,48,6.00
2011,07,06,09,49,6.60
2011,07,06,09,50,7.30
2011,07,06,09,51,6.50
2011,07,06,09,52,7.60
2011,07,06,09,53,8.20
2011,07,06,09,54,5.60
2011,07,06,09,55,3.30
2011,07,06,09,56,5.90
2011,07,06,09,57,5.90
2011,07,06,09,58,2.20
2011,07,06,09,59,6.90
2011,07,06,10,00,8.30
2011,07,06,10,01,4.80
2011,07,06,10,02,4.60
2011,07,06,10,03,3.80
2011,07,06,10,04,3.50
2011,07,06,10,05,1.20
2011,07,06,10,06,4.50
2011,07,06,10,07,4.20
2011,07,06,10,08,3.70
2011,07,06,10,09,5.50
2011,07,06,10,10,6.30
2011,07,06,10,11,5.70
2011,07,06,10,12,6.50
2011,07,06,10,13,3.80
2011,07,06,10,14,1.30
2011,07,06,10,15,4.80
2011,07,06,10,16,4.20
2011,07,06,10,17,3.20
2011,07,06,10,18,2.50
2011,07,06,10,19,3.90
2011,07,06,10,20,7.00
2011,07,06,10,21,8.80
2011,07,06,10,22,4.90
2011,07,06,10,23,6.10
2011,07,06,10,24,4.00
2011,07,06,10,25,6.20
2011,07,06,10,26,4.60
2011,07,06,10,27,2.70
2011,07,06,10,28,3.40
2011,07,06,10,29,5.10
2011,07,06,10,30,1.60
2011,07,06,10,31,6.70
2011,07,06,10,32,7.00
2011,07,06,10,33,2.30
2011,07,06,10,34,4.80
2011,07,06,10,35,2.90
2011,07,06,10,36,6.90
2011,07,06,10,37,7.20
2011,07,06,10,38,5.40
2011,07,06,10,39,6.00
2011,07,06,10,40,2.10
2011,07,06,10,41,2.90
2011,07,06,10,42,2.80
2011,07,06,10,43,3.90
2011,07,06,10,44,6.10
2011,07,06,10,45,6.80
2011,07,06,10,46,2.30
2011,07,06,10,47,4.00
2011,07,06,10,48,3.60
2011,07,06,10,49,3.30
2011,07,06,10,50,5.40
2011,07,06,10,51,5.60
2011,07,06,10,52,7.80
2011,07,06,10,53,3.70
2011,07,06,10,54,4.10
2011,07,06,10,55,6.90
2011,07,06,10,56,5.10
2011,07,06,10,57,8.80
2011,07,06,10,58,9.40
2011,07,06,10,59,8.00
2011,07,06,11,00,6.00
2011,07,06,11,01,6.00
2011,07,06,11,02,6.70
2011,07,06,11,03,5.10
2011,07,06,11,04,7.70
2011,07,06,11,05,8.50
2011,07,06,11,06,9.20
2011,07,06,11,07,8.30
2011,07,06,11,08,7.40
2011,07,06,11,09,6.40
2011,07,06,11,10,6.30
2011,07,06,11,11,5.70
2011,07,06,11,12,7.80
2011,07,06,11,13,5.40
2011,07,06,11,14,6.30
2011,07,06,11,15,6.20
2011,07,06,11,16,7.10
2011,07,06,11,17,6.90
2011,07,06,11,18,6.40
2011,07,06,11,19,7.60
2011,07,06,11,20,3.60
2011,07,06,11,21,6.70
2011,07,06,11,22,9.60
2011,07,06,11,23,7.00
2011,07,06,11,24,1.90
2011,07,06,11,25,6.00
2011,07,06,11,26,4.20
2011,07,06,11,27,3.80
2011,07,06,11,28,2.30
2011,07,06,11,29,2.30
2011,07,06,11,30,4.20
2011,07,06,11,31,7.20
2011,07,06,11,32,8.30
2011,07,06,11,33,5.70
2011,07,06,11,34,9.40
2011,07,06,11,35,8.90
2011,07,06,11,36,6.00
2011,07,06,11,37,1.60
2011,07,06,11,38,1.70
2011,07,06,11,39,4.30
2011,07,06,11,40,5.00
2011,07,06,11,41,3.90
2011,07,06,11,42,4.50
2011,07,06,11,43,7.10
2011,07,06,11,44,2.60
2011,07,06,11,45,9.30
2011,07,06,11,46,5.80
2011,07,06,11,47,6.10
2011,07,06,11,48,4.80
2011,07,06,11,49,7.70
2011,07,06,11,50,8.20
2011,07,06,11,51,4.20
2011,07,06,11,52,4.20
2011,07,06,11,53,1.00
2011,07,06,11,54,4.80
2011,07,06,11,55,5.50
2011,07,06,11,56,5.30
2011,07,06,11,57,3.40
2011,07,06,11,58,4.20
2011,07,06,11,59,6.60
2011,07,06,12,00,5.60
2011,07,06,12,01,8.40
2011,07,06,12,02,6.20
2011,07,06,12,03,6.50
2011,07,06,12,04,6.80
2011,07,06,12,05,6.90
2011,07,06,12,06,7.10
2011,07,06,12,07,5.40
2011,07,06,12,08,5.00
2011,07,06,12,09,7.50
2011,07,06,12,10,1.80
2011,07,06,12,11,1.60
2011,07,06,12,12,4.60
2011,07,06,12,13,8.30
2011,07,06,12,14,8.50
2011,07,06,12,15,2.20
2011,07,06,12,16,2.30
2011,07,06,12,17,2.70
2011,07,06,12,18,4.40
2011,07,06,12,19,7.40
2011,07,06,12,20,2.10
2011,07,06,12,21,1.50
2011,07,06,12,22,4.90
2011,07,06,12,23,7.00
2011,07,06,12,24,5.40
2011,07,06,12,25,8.40
2011,07,06,12,26,7.00
2011,07,06,12,27,7.10
2011,07,06,12,28,3.40
2011,07,06,12,29,4.30
2011,07,06,12,30,4.50
2011,07,06,12,31,3.00
2011,07,06,12,32,4.50
2011,07,06,12,33,6.30
2011,07,06,12,34,6.00
2011,07,06,12,35,5.50
2011,07,06,12,36,2.70
2011,07,06,12,37,8.00
2011,07,06,12,38,8.40
2011,07,06,12,39,6.60
2011,07,06,12,40,3.60
2011,07,06,12,41,2.10
2011,07,06,12,42,6.70
2011,07,06,12,43,9.10
2011,07,06,12,44,9.50
2011,07,06,12,45,8.20
2011,07,06,12,46,6.40
2011,07,06,12,47,7.60
2011,07,06,12,48,5.00
2011,07,06,12,49,8.10
2011,07,06,12,50,8.00
2011,07,06,12,51,6.00
2011,07,06,12,52,6.00
2011,07,06,12,53,5.30
2011,07,06,12,54,7.00
2011,07,06,12,55,4.90
2011,07,06,12,56,4.30
2011,07,06,12,57,2.00
2011,07,06,12,58,3.00
2011,07,06,12,59,3.60
2011,07,06,13,00,1.40
2011,07,06,13,01,0.80
2011,07,06,13,02,1.10
2011,07,06,13,03,2.60
2011,07,06,13,04,7.60
2011,07,06,13,05,5.90
2011,07,06,13,06,2.00
2011,07,06,13,07,5.50
2011,07,06,13,08,4.00
2011,07,06,13,09,7.30
2011,07,06,13,10,7.40
2011,07,06,13,11,6.70
2011,07,06,13,12,6.40
2011,07,06,13,13,3.50
2011,07,06,13,14,2.60
2011,07,06,13,15,5.80
2011,07,06,13,16,4.90
2011,07,06,13,17,3.80
2011,07,06,13,18,5.60
2011,07,06,13,19,6.00
2011,07,06,13,20,7.70
2011,07,06,13,21,4.30
2011,07,06,13,22,2.10
2011,07,06,13,23,5.20
2011,07,06,13,24,4.40
2011,07,06,13,25,1.80
2011,07,06,13,26,5.50
2011,07,06,13,27,4.10
2011,07,06,13,28,4.10
2011,07,06,13,29,5.90
2011,07,06,13,30,3.20
2011,07,06,13,31,4.40
2011,07,06,13,32,3.10
2011,07,06,13,33,3.50
2011,07,06,13,34,4.70
2011,07,06,13,35,7.00
2011,07,06,13,36,4.70
2011,07,06,13,37,5.80
2011,07,06,13,38,6.20
2011,07,06,13,39,7.40
2011,07,06,13,40,7.50
2011,07,06,13,41,3.10
2011,07,06,13,42,1.60
2011,07,06,13,43,2.90
2011,07,06,13,44,5.00
2011,07,06,13,45,9.30
2011,07,06,13,46,8.80
2011,07,06,13,47,11.50
2011,07,06,13,48,11.50
2011,07,06,13,49,10.10
2011,07,06,13,50,11.30
2011,07,06,13,51,9.50
2011,07,06,13,52,10.60
2011,07,06,13,53,11.00
2011,07,06,13,54,10.50
2011,07,06,13,55,11.50
2011,07,06,13,56,10.90
2011,07,06,13,57,9.10
2011,07,06,13,58,6.80
2011,07,06,13,59,7.70
2011,07,06,14,00,9.80
2011,07,06,14,01,8.70
2011,07,06,14,02,4.00
2011,07,06,14,03,4.10
2011,07,06,14,04,4.80
2011,07,06,14,05,7.60
2011,07,06,14,06,6.90
2011,07,06,14,07,4.40
2011,07,06,14,08,5.60
2011,07,06,14,09,6.70
2011,07,06,14,10,8.90
2011,07,06,14,11,7.00
2011,07,06,14,12,7.50
2011,07,06,14,13,8.30
2011,07,06,14,14,4.90
2011,07,06,14,15,12.00
2011,07,06,14,16,9.20
2011,07,06,14,17,10.60
2011,07,06,14,18,10.70
2011,07,06,14,19,11.50
2011,07,06,14,20,13.60
2011,07,06,14,21,16.40
2011,07,06,14,22,7.30
2011,07,06,14,23,7.50
2011,07,06,14,24,12.40
2011,07,06,14,25,8.30
2011,07,06,14,26,12.60
2011,07,06,14,27,7.40
2011,07,06,14,28,6.40
2011,07,06,14,29,8.40
2011,07,06,14,30,6.30
2011,07,06,14,31,7.40
2011,07,06,14,32,9.70
2011,07,06,14,33,7.40
2011,07,06,14,34,8.30
2011,07,06,14,35,6.60
2011,07,06,14,36,4.40
2011,07,06,14,37,5.10
2011,07,06,14,38,8.70
2011,07,06,14,39,7.40
2011,07,06,14,40,8.60
2011,07,06,14,41,8.30
2011,07,06,14,42,5.80
2011,07,06,14,43,9.20
2011,07,06,14,44,8.10
2011,07,06,14,45,8.30
2011,07,06,14,46,8.40
2011,07,06,14,47,8.70
2011,07,06,14,48,10.50
2011,07,06,14,49,11.60
2011,07,06,14,50,13.60
2011,07,06,14,51,8.30
2011,07,06,14,52,8.70
2011,07,06,14,53,7.60
2011,07,06,14,54,7.50
2011,07,06,14,55,8.50
2011,07,06,14,56,8.90
2011,07,06,14,57,9.90
2011,07,06,14,58,7.60
2011,07,06,14,59,8.40
2011,07,06,15,00,7.50
2011,07,06,15,01,8.10
2011,07,06,15,02,8.60
2011,07,06,15,03,8.00
2011,07,06,15,04,7.90
2011,07,06,15,05,8.10
2011,07,06,15,06,7.30
2011,07,06,15,07,6.70
2011,07,06,15,08,10.10
2011,07,06,15,09,5.30
2011,07,06,15,10,5.40
2011,07,06,15,11,5.50
2011,07,06,15,12,10.40
2011,07,06,15,13,10.60
2011,07,06,15,14,10.70
2011,07,06,15,15,12.80
2011,07,06,15,16,11.80
2011,07,06,15,17,10.60
2011,07,06,15,18,5.60
2011,07,06,15,19,8.50
2011,07,06,15,20,9.20
2011,07,06,15,21,12.50
2011,07,06,15,22,8.20
2011,07,06,15,23,11.50
2011,07,06,15,24,7.80
2011,07,06,15,25,7.80
2011,07,06,15,26,6.90
2011,07,06,15,27,9.40
2011,07,06,15,28,8.50
2011,07,06,15,29,8.40
2011,07,06,15,30,9.00
2011,07,06,15,31,8.70
2011,07,06,15,32,7.90
2011,07,06,15,33,9.10
2011,07,06,15,34,9.20
2011,07,06,15,35,9.70
2011,07,06,15,36,10.70
2011,07,06,15,37,10.60
2011,07,06,15,38,12.20
2011,07,06,15,39,15.30
2011,07,06,15,40,11.60
2011,07,06,15,41,10.10
2011,07,06,15,42,12.90
2011,07,06,15,43,13.10
2011,07,06,15,44,10.40
2011,07,06,15,45,9.20
2011,07,06,15,46,8.00
2011,07,06,15,47,6.10
2011,07,06,15,48,7.10
2011,07,06,15,49,7.40
2011,07,06,15,50,6.20
2011,07,06,15,51,6.50
2011,07,06,15,52,7.40
2011,07,06,15,53,7.20
2011,07,06,15,54,8.40
2011,07,06,15,55,9.40
2011,07,06,15,56,7.10
2011,07,06,15,57,6.40
2011,07,06,15,58,9.80
2011,07,06,15,59,9.10
2011,07,06,16,00,8.60
2011,07,06,16,01,7.90
2011,07,06,16,02,5.70
2011,07,06,16,03,6.30
2011,07,06,16,04,5.40
2011,07,06,16,05,4.00
2011,07,06,16,06,6.50
2011,07,06,16,07,6.60
2011,07,06,16,08,5.80
2011,07,06,16,09,4.00
2011,07,06,16,10,3.90
2011,07,06,16,11,4.00
2011,07,06,16,12,4.40
2011,07,06,16,13,3.40
2011,07,06,16,14,2.70
2011,07,06,16,15,4.20
2011,07,06,16,16,4.80
2011,07,06,16,17,3.40
2011,07,06,16,18,3.80
2011,07,06,16,19,4.30
2011,07,06,16,20,4.40
2011,07,06,16,21,7.90
2011,07,06,16,22,9.30
2011,07,06,16,23,7.00
2011,07,06,16,24,8.80
2011,07,06,16,25,7.50
2011,07,06,16,26,3.90
2011,07,06,16,27,6.50
2011,07,06,16,28,6.20
2011,07,06,16,29,5.60
2011,07,06,16,30,10.10
2011,07,06,16,31,8.70
2011,07,06,16,32,9.40
2011,07,06,16,33,10.60
2011,07,06,16,34,14.90
2011,07,06,16,35,12.70
2011,07,06,16,36,10.50
2011,07,06,16,37,9.90
2011,07,06,16,38,14.00
2011,07,06,16,39,11.60
2011,07,06,16,40,8.30
2011,07,06,16,41,11.50
2011,07,06,16,42,7.90
2011,07,06,16,43,8.80
2011,07,06,16,44,10.00
2011,07,06,16,45,14.70
2011,07,06,16,46,13.40
2011,07,06,16,47,10.80
2011,07,06,16,48,9.00
2011,07,06,16,49,11.70
2011,07,06,16,50,12.50
2011,07,06,16,51,12.30
2011,07,06,16,52,14.60
2011,07,06,16,53,13.00
2011,07,06,16,54,13.50
2011,07,06,16,55,15.80
2011,07,06,16,56,12.20
2011,07,06,16,57,14.10
2011,07,06,16,58,16.50
2011,07,06,16,59,15.90
2011,07,06,17,00,8.40
2011,07,06,17,01,8.10
2011,07,06,17,02,13.00
2011,07,06,17,03,15.40
2011,07,06,17,04,7.70
2011,07,06,17,05,11.70
2011,07,06,17,06,10.00
2011,07,06,17,07,10.40
2011,07,06,17,08,11.80
2011,07,06,17,09,10.10
2011,07,06,17,10,16.90
2011,07,06,17,11,17.40
2011,07,06,17,12,18.40
2011,07,06,17,13,16.80
2011,07,06,17,14,14.20
2011,07,06,17,15,19.80
2011,07,06,17,16,18.20
2011,07,06,17,17,19.10
2011,07,06,17,18,18.30
2011,07,06,17,19,16.80
2011,07,06,17,20,16.00
2011,07,06,17,21,13.30
2011,07,06,17,22,10.90
2011,07,06,17,23,10.70
2011,07,06,17,24,17.50
2011,07,06,17,25,19.80
2011,07,06,17,26,18.20
2011,07,06,17,27,16.70
2011,07,06,17,28,19.50
2011,07,06,17,29,12.50
2011,07,06,17,30,13.00
2011,07,06,17,31,18.40
2011,07,06,17,32,15.30
2011,07,06,17,33,17.20
2011,07,06,17,34,18.20
2011,07,06,17,35,15.50
2011,07,06,17,36,19.80
2011,07,06,17,37,16.00
2011,07,06,17,38,22.30
2011,07,06,17,39,21.60
2011,07,06,17,40,17.60
2011,07,06,17,41,18.30
2011,07,06,17,42,14.70
2011,07,06,17,43,18.10
2011,07,06,17,44,13.40
2011,07,06,17,45,19.10
2011,07,06,17,46,15.90
2011,07,06,17,47,20.30
2011,07,06,17,48,22.20
2011,07,06,17,49,18.60
2011,07,06,17,50,18.70
2011,07,06,17,51,19.10
2011,07,06,17,52,15.90
2011,07,06,17,53,18.80
2011,07,06,17,54,15.10
2011,07,06,17,55,19.50
2011,07,06,17,56,20.40
2011,07,06,17,57,22.60
2011,07,06,17,58,21.50
2011,07,06,17,59,18.30
2011,07,06,18,00,21.50
2011,07,06,18,01,19.60